Dewpoint
57 56 55 55 54 53 52 51 50 50 49 46 44 43 41 39 37 35 34 32 32 34
56 55 55 54 54 53 52 51 50 50 48 44 43 41 40 39 36 34 33 33 31 33
55 55 54 54 52 52 51 50 49 48 47 43 42 41 40 40 37 34 33 33 31 32
53 54 53 53 52 51 51 50 48 48 46 44 41 41 39 38 35 33 33 32 31 32
38 53 52 52 51 51 50 49 48 47 45 42 39 38 37 36 34 32 33 32 32 32
37 51 51 51 51 50 50 48 48 47 45 43 41 40 40 36 34 33 32 32 32 31
34 35 50 50 50 50 49 48 48 47 46 45 43 41 39 37 34 31 31 33 32 31
33 34 37 50 50 49 49 48 47 46 45 44 42 40 38 36 33 30 30 32 31 32
29 32 34 47 50 49 48 47 46 45 44 42 41 41 40 35 31 30 30 30 30 31
27 29 32 35 48 48 46 45 45 44 43 41 40 42 42 40 35 35 33 32 31 30
26 27 30 33 38 47 45 44 43 43 42 41 40 42 42 41 36 34 33 33 30 30
26 26 28 30 32 36 46 45 44 43 42 41 41 43 42 40 34 33 32 31 31 30
26 26 27 29 31 34 36 45 45 44 43 43 41 42 42 40 35 33 32 32 32 36
25 27 28 29 31 32 34 40 44 43 45 44 43 41 41 39 35 34 34 33 34 34
Lifted_Index
-0 0 1 1 1 -0 -0 0 1 2 2 3 4 6 8 10 11 12 12 13 14 15
-0 0 0 1 0 -0 0 1 1 2 3 4 4 5 7 9 10 10 10 12 14 15
-0 -0 -0 -0 0 0 1 1 1 2 3 4 4 4 5 6 8 8 9 12 14 15
-0 -0 -0 -0 0 1 1 1 1 2 3 4 4 4 4 5 6 7 9 12 14 15
0 0 -0 -0 0 1 1 1 1 2 3 4 4 4 4 4 5 7 9 11 13 15
1 1 0 -0 0 1 1 1 2 2 3 3 4 5 5 5 6 7 9 11 13 14
3 2 1 1 1 1 2 2 2 3 3 3 4 5 5 6 6 7 9 11 13 15
4 3 2 2 2 2 2 3 3 3 3 3 4 5 5 6 6 7 8 10 13 15
7 5 4 3 2 2 3 3 3 4 4 4 4 5 6 7 7 7 8 10 14 16
8 7 5 4 2 2 3 3 3 4 4 5 5 6 7 8 7 7 8 10 13 15
10 9 7 5 3 3 3 3 4 4 5 5 6 6 7 8 8 8 8 10 13 14
12 10 9 7 5 4 4 4 4 4 5 6 6 7 8 8 8 8 8 11 13 14
14 12 10 9 7 6 5 5 5 5 5 6 6 7 7 8 8 7 8 11 13 13
15 13 11 10 8 7 6 6 5 5 5 6 6 6 7 7 7 7 8 10 12 12